Powrót do katalogu

BEIDOU 3M12

AktywnyNawigacjaMEO
NORAD 43603·PAYLOAD·🇨🇳 China

Wystrzelony Aug 24, 2018 z Xichang Satellite Launch Center

Loading…

Następne Przeloty (najbliższe 24 godziny)

TLE

ŚwieżeSource: CelesTrak SupGP

Epoka: Sep 12, 2026, 00:00 UTC

1 43603C 18067B   26255.00000000  .00000000  00000+0  00000+0 0  2551
2 43603  54.1753 178.0620 0005433  27.1662 311.6624  1.86227223    13

Śledź BEIDOU 3M12 w czasie rzeczywistym z AllMySat

Download on the App Store